World > North America > United States > South Carolina > Tarboro

Tarboro, SC Hourly Weather Conditions

Feedback E-mail the Weather

Quick WX

Tarboro, SC Weather Maps

°F °C°F °C
Tarboro Weather Map
UTC Time: 11/28/2022, 08:00
Your Time:

Tarboro, SC Regional Weather

Expires:202211280800;;931802
ASUS42 KCHS 280725
RWRCHS

Regional Weather Roundup
National Weather Service Charleston SC
200 AM EST MON NOV 28 2022

NOTE: "fair" indicates few or no clouds below 12,000 feet with no
significant weather and/or obstructions to visibility.

Not all stations are quality controlled. Use data with caution,
especially dewpoint observations.


SCZ027-030-031-034>040-042>050-280800-
...Southeast South Carolina...
  
CITY           SKY/WX    TMP DP  RH WIND       PRES   REMARKS
N Charleston   CLEAR     59  46  62 W8        29.87S                  
Waterfront Prk   N/A     62  48  60 VRB2      29.73S                  
Mount Pleasant FAIR      61  50  67 VRB5G13   29.87R                  
Johns Island   FAIR      59  48  67 SW6       29.89R                  
Pinopolis        N/A     61  52  72 W12         N/A                   
Moncks Corner  FAIR      55  46  71 CALM      29.87R                  
Summerville    FAIR      54  50  87 CALM      29.87R                  
Beaufort MCAS  CLEAR     61  46  57 W8        29.89S                  
Beaufort Arpt  FAIR      59  46  63 SW7       29.90R                  
Hilton Head Is CLEAR     57  48  72 CALM      29.92R                  
Walterboro     SUNNY     54  45  71 W6        29.90R                  
Allendale      FAIR      54  48  82 CALM      29.88R                  

...Southern Midlands and Pee Dee...
  
CITY           SKY/WX    TMP DP  RH WIND       PRES   REMARKS
Georgetown     FAIR      55  46  71 SW7       29.85S                  
Kingstree      FAIR      54  45  71 W5        29.84S                  
Orangeburg     CLEAR     55  46  71 SW7       29.86S                  
Barnwell       FAIR      55  46  71 SW6       29.87S                  
Aiken          FAIR      51  45  78 SW6       29.86S                  
Manning        FAIR      55  45  67 W6        29.85F                  
Columbia       CLEAR     55  46  71 SW7       29.83S                  
Sumter         CLEAR     57  46  67 SW8       29.81F                  
Florence       CLEAR     59  47  64 W12       29.81S                  
Myrtle Beach   CLEAR     61  48  62 W12       29.83S                  
N Myrtle Beach CLEAR     61  47  59 W8        29.81R                  

$$
 

SKY/WX - Weather  TMP - Temperature  DP - Dew Point  RH - Humidity
WIND - Wind Direction/Speed PRES - Barometric Pressure VSB - Visibility
WCI - Wind Chill Index E13G22 Wind - East Wind 13 mph/Gusts of 22 mph

Trending Headlines

Trending Entertainment Headlines

Tarboro Radar Loop

Use the map search tool if you want to place a location marker on the radar map...

Tarboro Quick Facts

National Two Day Weather Forecast


E-mail the Tarboro Weather Forecast

Voice your opinion or tell us about page issues...